George/Botha, South Africa

1:33 PM SAST on February 20, 2017 (GMT +0200)
George/Botha

Weather History for 68828 - October, 2013

Change the Weather History Date:

Wednesday, October 16, 2013

  Actual Average Record
Temperature  
Mean Temperature 57 °F -  
Max Temperature 61 °F 68 °F - ()
Min Temperature 53 °F 52 °F - ()
Degree Days  
Heating Degree Days 8    
Growing Degree Days 7 (Base 50)    
Moisture  
Dew Point 48 °F    
Average Humidity 68    
Maximum Humidity 82    
Minimum Humidity 53    
Precipitation  
Precipitation 0.01 in - - ()
Sea Level Pressure  
Sea Level Pressure 30.21 in    
Wind  
Wind Speed 9 mph ()    
Max Wind Speed 15 mph    
Max Gust Speed -    
Visibility 7.6 miles    
Events      
T = Trace of Precipitation, MM = Missing Value Source: Averaged Metar Reports

Daily Weather History Graph

Daily Weather History Graph

Search for Another Location

Airport or City:

Trip Planner

Search our weather history database for the weather conditions in past years. The results will help you decide how hot, cold, wet, or windy it might be!

Date:

Astronomy

Oct. 16, 2013 Rise Set
Actual Time 5:47 AM SAST 6:44 PM SAST
Civil Twilight 5:22 AM SAST 7:10 PM SAST
Nautical Twilight 4:51 AM SAST 7:40 PM SAST
Astronomical Twilight 4:20 AM SAST 8:12 PM SAST
Moon 4:23 PM SAST (10/16) 3:59 AM SAST (10/16)
Length of Visible Light 13h 48m
Length of Day
12h 57m
Waxing Gibbous, 92% of the Moon is Illuminated
Oct 16
Waxing Gibbous
Oct 19
Full
Oct 27
Last Quarter
Nov 3
New
Nov 10
First Quarter

Hourly Weather History & Observations

Time (SAST) Temp. Dew Point Humidity Pressure Visibility Wind Dir Wind Speed Gust Speed Precip Events Conditions
12:00 AM 57.2 °F 50.0 °F 77% 30.12 in 6.2 mi West 12.7 mph - N/A   Overcast
1:00 AM 55.4 °F 50.0 °F 82% 30.15 in 6.2 mi West 11.5 mph - N/A   Mostly Cloudy
2:00 AM 54 °F 49 °F 76% 30.15 in 12 mi WNW 6.9 mph - -  
2:00 AM 53.6 °F 48.2 °F 82% 30.12 in - WNW 6.9 mph - N/A   Clear
3:00 AM 53.6 °F 48.2 °F 82% 30.15 in 6.2 mi NW 6.9 mph - N/A   Mostly Cloudy
4:00 AM 57.2 °F 48.2 °F 72% 30.15 in 6.2 mi West 9.2 mph - N/A   Overcast
5:00 AM 57 °F 48 °F 63% 30.17 in 12 mi West 15.0 mph - -   Overcast
5:00 AM 57.2 °F 46.4 °F 67% 30.15 in 6.2 mi West 13.8 mph - N/A   Mostly Cloudy
6:00 AM 57.2 °F 48.2 °F 72% 30.18 in 6.2 mi WNW 8.1 mph - N/A   Mostly Cloudy
7:00 AM 57.2 °F 50.0 °F 77% 30.18 in 6.2 mi West 9.2 mph - N/A   Scattered Clouds
8:00 AM 59 °F 50 °F 63% 30.22 in 12 mi West 12.7 mph - -   Mostly Cloudy
8:00 AM 59.0 °F 50.0 °F 72% 30.21 in 6.2 mi West 12.7 mph - N/A   Mostly Cloudy
9:00 AM 60.8 °F 48.2 °F 63% 30.21 in 6.2 mi West 11.5 mph - N/A   Mostly Cloudy
10:00 AM 60.8 °F 50.0 °F 68% 30.24 in 6.2 mi SW 11.5 mph - N/A   Mostly Cloudy
11:00 AM 60 °F 49 °F 59% 30.25 in 12 mi SSW 13.8 mph - -   Mostly Cloudy
11:00 AM 60.8 °F 50.0 °F 68% 30.24 in 6.2 mi SSW 13.8 mph - N/A   Mostly Cloudy
12:00 PM 60.8 °F 48.2 °F 63% 30.24 in 6.2 mi SSW 15.0 mph - N/A   Mostly Cloudy
1:00 PM 60.8 °F 44.6 °F 55% 30.21 in 6.2 mi SSW 15.0 mph - N/A   Mostly Cloudy
2:00 PM 59 °F 46 °F 53% 30.25 in 12 mi SSW 10.4 mph - -   Mostly Cloudy
2:00 PM 59.0 °F 46.4 °F 63% 30.24 in 6.2 mi SSW 10.4 mph - N/A   Mostly Cloudy
3:00 PM 59.0 °F 48.2 °F 67% 30.21 in 6.2 mi SSW 8.1 mph - N/A   Mostly Cloudy
4:00 PM 59.0 °F 48.2 °F 67% 30.24 in 6.2 mi SW 11.5 mph - N/A   Mostly Cloudy
5:00 PM 58 °F 46 °F 53% 30.25 in 12 mi SSW 11.5 mph - -   Mostly Cloudy
5:00 PM 59.0 °F 46.4 °F 63% 30.24 in 6.2 mi SSW 11.5 mph - N/A   Mostly Cloudy
6:00 PM 57.2 °F 46.4 °F 67% 30.24 in 6.2 mi SSW 9.2 mph - N/A   Mostly Cloudy
7:00 PM 57.2 °F 46.4 °F 67% 30.27 in 6.2 mi SSW 6.9 mph - N/A   Mostly Cloudy
8:00 PM 56 °F 47 °F 63% 30.29 in 12 mi WSW 4.6 mph - -   Mostly Cloudy
8:00 PM 55.4 °F 46.4 °F 72% 30.27 in 6.2 mi WSW 4.6 mph - N/A   Mostly Cloudy
11:00 PM 53.6 °F 48.2 °F 82% 30.30 in 6.2 mi WSW 5.8 mph - N/A   Drizzle